Regional Weather Roundup
Issued by NWS Cleveland, OH

Home | Current Version | Previous Version | Graphics & Text | Print | Product List | Glossary On
Versions: 1 2 3 4 5 6 7 8 9 10 11 12 13 14 15 16 17 18 19 20 21 22 23 24 25 26 27 28 29 30 31 32 33 34 35 36 37 38 39 40 41 42 43 44 45 46 47 48 49 50
000
ASUS41 KCLE 050202
RWRCLE
OHIO REGIONAL WEATHER ROUNDUP
NATIONAL WEATHER SERVICE CLEVELAND, OH
1000 PM EDT SAT JUL 04 2015

NOTE: "FAIR" INDICATES FEW OR NO CLOUDS BELOW 12,000 FEET WITH NO
SIGNIFICANT WEATHER AND/OR OBSTRUCTIONS TO VISIBILITY.

OHZ001>008-015>018-024>027-034-035-043-044-050300-
   NORTHWEST OHIO

CITY           SKY/WX    TMP DP  RH WIND       PRES   REMARKS
DEFIANCE       CLEAR     69  61  75 CALM      30.02R
FINDLAY        CLEAR     69  59  70 CALM      30.02R
TOLEDO EXPRESS CLEAR     65  57  75 CALM      30.02R
TOLEDO EXEC    CLEAR     67  56  67 SE7       30.03R
LIMA           CLEAR     66  60  81 S3        30.04R
$$

OHZ009>014-019>023-028>033-038-089-050300-
   NORTHEAST OHIO

CITY           SKY/WX    TMP DP  RH WIND       PRES   REMARKS
CLE-HOPKINS    CLEAR     67  51  56 CALM      30.05R
CLE-LAKEFRONT  CLEAR     70  53  54 CALM      30.02R
CUY CO. ARPT   CLEAR     64  55  72 CALM      30.04R
LORAIN-ELYRIA  CLEAR     63  55  75 CALM      30.04R
ASHTABULA      CLEAR     61  57  87 CALM      30.05R
AKRON-CANTON   CLEAR     65  52  62 N5        30.05R
WOOSTER        CLEAR     61  57  87 CALM      30.06R
MANSFIELD      CLEAR     65  58  78 NE3       30.06R
YOUNGSTOWN     CLEAR     60  52  74 CALM      30.04R
$$

OHZ042-051>053-060>062-070>072-077>081-050300-
  SOUTHWEST OHIO

CITY           SKY/WX    TMP DP  RH WIND       PRES   REMARKS
CINC-COVINGTON MOCLDY    74  62  66 N6        30.03R
CINC-LUNKEN    MOCLDY    69  63  81 NE3       30.02R
HAMILTON       MOCLDY    66  62  87 CALM      30.03R
DAYTON         PTCLDY    71  60  68 E3        30.05R
WRIGHT-PAT AFB PTCLDY    69  60  73 CALM      30.04R
DAYTON GENERAL PTCLDY    70  60  70 E6        30.03R
WILMINGTON     PTCLDY    67  59  75 NE3       30.04R
$$

OHZ036-037-039>041-045>050-054>059-063>069-073>076-082>088-050300-
  CENTRAL AND SOUTHEAST OHIO

CITY           SKY/WX    TMP DP  RH WIND       PRES   REMARKS
COLUMBUS       MOCLDY    70  56  61 CALM      30.03R
OSU AIRPORT    PTCLDY    69  56  62 CALM      30.04R
BOLTON FIELD   NOT AVBL
RICKENBACK AFB NOT AVBL
NEWARK         CLEAR     65  60  84 CALM      30.04R
MARION         CLEAR     69  59  70 CALM      30.04R
LANCASTER      PTCLDY    63  60  90 CALM      30.04R
ZANESVILLE     NOT AVBL
NEW PHILLY     CLEAR     65  58  78 CALM      30.04R
$$


USA.gov is the U.S. government's official web portal to all federal, state and local government web resources and services.